Time,TemperatureF,DewpointF,PressureIn,WindDirection,WindDirectionDegrees,WindSpeedMPH,WindSpeedGustMPH,Humidity,HourlyPrecipIn,Conditions,Clouds,dailyrainin,SoftwareType,DateUTC
2013-08-04 00:02:00,68.0,66.0,-100.00,NNE,25,0.0,0.0,92,0.00,,,-99.99,,2013-08-04 04:02:00,
2013-08-04 00:12:00,68.0,66.0,-100.00,ENE,60,0.0,0.0,92,0.00,,,-99.99,,2013-08-04 04:12:00,
2013-08-04 00:22:00,68.0,65.0,-100.00,NE,45,0.0,0.0,92,0.00,,,-99.99,,2013-08-04 04:22:00,
2013-08-04 00:32:00,68.0,66.0,-100.00,NNE,25,0.0,0.0,92,0.00,,,-99.99,,2013-08-04 04:32:00,
2013-08-04 00:42:00,67.0,65.0,-100.00,NE,35,0.0,0.0,92,0.00,,,-99.99,,2013-08-04 04:42:00,
2013-08-04 00:52:00,67.0,65.0,-100.00,NE,50,0.0,0.0,92,0.00,,,-99.99,,2013-08-04 04:52:00,
2013-08-04 01:02:00,67.0,64.0,-100.00,NE,40,0.0,0.0,92,0.00,,,-99.99,,2013-08-04 05:02:00,
2013-08-04 01:12:00,67.0,64.0,-100.00,NE,40,0.0,0.0,92,0.00,,,-99.99,,2013-08-04 05:12:00,
2013-08-04 01:22:00,67.0,65.0,-100.00,East,100,0.0,1.0,93,0.00,,,-99.99,,2013-08-04 05:22:00,
2013-08-04 01:32:00,66.0,64.0,-100.00,ENE,60,0.0,0.0,93,0.00,,,-99.99,,2013-08-04 05:32:00,
2013-08-04 01:42:00,66.0,64.0,-100.00,ENE,70,0.0,0.0,93,0.00,,,-99.99,,2013-08-04 05:42:00,
2013-08-04 01:52:00,66.0,64.0,-100.00,East,80,0.0,0.0,93,0.00,,,-99.99,,2013-08-04 05:52:00,
2013-08-04 02:02:00,65.0,64.0,-100.00,East,90,0.0,0.0,93,0.00,,,-99.99,,2013-08-04 06:02:00,
2013-08-04 02:12:00,65.0,63.0,-100.00,East,95,0.0,1.0,93,0.00,,,-99.99,,2013-08-04 06:12:00,
2013-08-04 02:22:00,65.0,63.0,-100.00,East,95,0.0,0.0,93,0.00,,,-99.99,,2013-08-04 06:22:00,
2013-08-04 03:02:00,65.0,63.0,-100.00,East,85,0.0,0.0,93,0.00,,,-99.99,,2013-08-04 07:02:00,
2013-08-04 03:12:00,65.0,64.0,-100.00,ENE,70,0.0,0.0,93,0.00,,,-99.99,,2013-08-04 07:12:00,
2013-08-04 03:22:00,65.0,64.0,-100.00,East,85,0.0,0.0,93,0.00,,,-99.99,,2013-08-04 07:22:00,
2013-08-04 04:02:00,65.0,63.0,-100.00,NE,40,0.0,0.0,93,0.00,,,-99.99,,2013-08-04 08:02:00,
2013-08-04 04:22:00,65.0,63.0,-100.00,ENE,75,0.0,0.0,93,0.00,,,-99.99,,2013-08-04 08:22:00,
2013-08-04 04:33:00,65.0,63.0,-100.00,ESE,105,0.0,0.0,93,0.00,,,-99.99,,2013-08-04 08:33:00,
2013-08-04 05:02:00,64.0,63.0,-100.00,NE,45,0.0,0.0,94,0.00,,,-99.99,,2013-08-04 09:02:00,
2013-08-04 05:12:00,64.0,62.0,-100.00,East,95,0.0,0.0,94,0.00,,,-99.99,,2013-08-04 09:12:00,
2013-08-04 05:22:00,64.0,62.0,-100.00,East,90,0.0,0.0,94,0.00,,,-99.99,,2013-08-04 09:22:00,
2013-08-04 05:32:00,64.0,62.0,-100.00,East,90,0.0,0.0,94,0.00,,,-99.99,,2013-08-04 09:32:00,
2013-08-04 05:43:00,64.0,62.0,-100.00,ENE,75,0.0,0.0,94,0.00,,,-99.99,,2013-08-04 09:43:00,
2013-08-04 05:52:00,64.0,62.0,-100.00,ENE,75,0.0,0.0,94,0.00,,,-99.99,,2013-08-04 09:52:00,
2013-08-04 06:02:00,64.0,62.0,-100.00,East,95,0.0,0.0,94,0.00,,,-99.99,,2013-08-04 10:02:00,
2013-08-04 06:12:00,64.0,63.0,-100.00,ENE,70,0.0,0.0,94,0.00,,,-99.99,,2013-08-04 10:12:00,
2013-08-04 06:22:00,64.0,63.0,-100.00,East,95,0.0,0.0,94,0.00,,,-99.99,,2013-08-04 10:22:00,
2013-08-04 06:32:00,64.0,63.0,-100.00,East,95,0.0,0.0,94,0.00,,,-99.99,,2013-08-04 10:32:00,
2013-08-04 06:42:00,64.0,62.0,-100.00,East,90,0.0,0.0,94,0.00,,,-99.99,,2013-08-04 10:42:00,
2013-08-04 07:02:00,64.0,62.0,-100.00,SE,125,0.0,0.0,94,0.00,,,-99.99,,2013-08-04 11:02:00,
2013-08-04 07:12:00,64.0,62.0,-100.00,SE,125,0.0,0.0,94,0.00,,,-99.99,,2013-08-04 11:12:00,
2013-08-04 07:22:00,64.0,63.0,-100.00,ESE,105,0.0,0.0,94,0.00,,,-99.99,,2013-08-04 11:22:00,
2013-08-04 07:32:00,64.0,62.0,-100.00,East,85,0.0,1.0,94,0.00,,,-99.99,,2013-08-04 11:32:00,
2013-08-04 07:42:00,64.0,62.0,-100.00,East,100,0.0,0.0,94,0.00,,,-99.99,,2013-08-04 11:42:00,
2013-08-04 07:53:00,64.0,62.0,-100.00,East,100,0.0,0.0,94,0.00,,,-99.99,,2013-08-04 11:53:00,
2013-08-04 08:02:00,65.0,64.0,-100.00,NW,305,1.0,4.0,94,0.00,,,-99.99,,2013-08-04 12:02:00,
2013-08-04 08:12:00,65.0,64.0,-100.00,NW,305,3.0,6.0,94,0.00,,,-99.99,,2013-08-04 12:12:00,
2013-08-04 08:22:00,66.0,64.0,-100.00,NW,310,1.0,4.0,94,0.00,,,-99.99,,2013-08-04 12:22:00,
2013-08-04 08:33:00,66.0,64.0,-100.00,NW,315,1.0,4.0,93,0.00,,,-99.99,,2013-08-04 12:33:00,
2013-08-04 08:43:00,67.0,65.0,-100.00,SSW,195,0.0,1.0,93,0.00,,,-99.99,,2013-08-04 12:43:00,
2013-08-04 08:53:00,67.0,65.0,-100.00,NNW,345,1.0,5.0,93,0.00,,,-99.99,,2013-08-04 12:53:00,
2013-08-04 09:02:00,67.0,65.0,-100.00,NE,50,0.0,4.0,92,0.00,,,-99.99,,2013-08-04 13:02:00,
2013-08-04 09:12:00,67.0,65.0,-100.00,NW,315,0.0,1.0,91,0.00,,,-99.99,,2013-08-04 13:12:00,
2013-08-04 09:22:00,68.0,65.0,-100.00,West,280,0.0,2.0,90,0.00,,,-99.99,,2013-08-04 13:22:00,
2013-08-04 09:32:00,68.0,65.0,-100.00,NW,310,1.0,2.0,89,0.00,,,-99.99,,2013-08-04 13:32:00,
2013-08-04 09:43:00,68.0,65.0,-100.00,NW,310,2.0,4.0,88,0.00,,,-99.99,,2013-08-04 13:43:00,
2013-08-04 09:52:00,70.0,65.0,-100.00,NW,315,0.0,4.0,85,0.00,,,-99.99,,2013-08-04 13:52:00,
2013-08-04 10:02:00,71.0,65.0,-100.00,West,280,2.0,5.0,83,0.00,,,-99.99,,2013-08-04 14:02:00,
2013-08-04 10:12:00,71.0,65.0,-100.00,NW,315,1.0,4.0,81,0.00,,,-99.99,,2013-08-04 14:12:00,
2013-08-04 10:22:00,73.0,67.0,-100.00,NE,50,0.0,3.0,80,0.00,,,-99.99,,2013-08-04 14:22:00,
2013-08-04 10:32:00,72.0,66.0,-100.00,NE,35,0.0,2.0,79,0.00,,,-99.99,,2013-08-04 14:32:00,
2013-08-04 10:43:00,73.0,66.0,-100.00,SSE,150,0.0,2.0,79,0.00,,,-99.99,,2013-08-04 14:43:00,
2013-08-04 10:53:00,71.0,66.0,-100.00,NNE,20,0.0,3.0,82,0.00,,,-99.99,,2013-08-04 14:53:00,
2013-08-04 11:02:00,71.0,66.0,-100.00,SW,220,1.0,3.0,82,0.00,,,-99.99,,2013-08-04 15:02:00,
2013-08-04 11:12:00,72.0,66.0,-100.00,WNW,290,2.0,4.0,80,0.00,,,-99.99,,2013-08-04 15:12:00,
2013-08-04 11:22:00,72.0,66.0,-100.00,NW,325,0.0,6.0,80,0.00,,,-99.99,,2013-08-04 15:22:00,
2013-08-04 11:32:00,73.0,65.0,-100.00,NE,35,1.0,4.0,78,0.00,,,-99.99,,2013-08-04 15:32:00,
2013-08-04 11:43:00,72.0,66.0,-100.00,WSW,240,1.0,3.0,79,0.00,,,-99.99,,2013-08-04 15:43:00,
2013-08-04 11:53:00,74.0,66.0,-100.00,NW,325,1.0,4.0,76,0.00,,,-99.99,,2013-08-04 15:53:00,
2013-08-04 12:02:00,73.0,66.0,-100.00,West,265,1.0,7.0,76,0.00,,,-99.99,,2013-08-04 16:02:00,
2013-08-04 12:12:00,73.0,65.0,-100.00,NW,315,2.0,6.0,76,0.00,,,-99.99,,2013-08-04 16:12:00,
2013-08-04 12:22:00,74.0,65.0,-100.00,NW,325,1.0,6.0,73,0.00,,,-99.99,,2013-08-04 16:22:00,
2013-08-04 12:33:00,76.0,66.0,-100.00,West,265,1.0,6.0,71,0.00,,,-99.99,,2013-08-04 16:33:00,
2013-08-04 12:42:00,74.0,63.0,-100.00,East,85,1.0,4.0,69,0.00,,,-99.99,,2013-08-04 16:42:00,
2013-08-04 12:52:00,74.0,62.0,-100.00,NNE,20,1.0,2.0,67,0.00,,,-99.99,,2013-08-04 16:52:00,
2013-08-04 13:02:00,74.0,60.0,-100.00,West,260,0.0,3.0,60,0.00,,,-99.99,,2013-08-04 17:02:00,
2013-08-04 13:12:00,76.0,60.0,-100.00,NW,310,0.0,3.0,59,0.00,,,-99.99,,2013-08-04 17:12:00,
2013-08-04 13:22:00,76.0,62.0,-100.00,South,190,1.0,4.0,60,0.00,,,-99.99,,2013-08-04 17:22:00,
2013-08-04 13:32:00,76.0,61.0,-100.00,West,275,1.0,6.0,58,0.00,,,-99.99,,2013-08-04 17:32:00,
2013-08-04 13:43:00,79.0,62.0,-100.00,North,355,0.0,3.0,54,0.00,,,-99.99,,2013-08-04 17:43:00,
2013-08-04 13:53:00,78.0,60.0,-100.00,SSE,155,1.0,6.0,53,0.00,,,-99.99,,2013-08-04 17:53:00,
2013-08-04 14:02:00,80.0,60.0,-100.00,SSW,195,1.0,6.0,50,0.00,,,-99.99,,2013-08-04 18:02:00,
2013-08-04 14:12:00,80.0,58.0,-100.00,North,5,1.0,6.0,47,0.00,,,-99.99,,2013-08-04 18:12:00,
2013-08-04 14:23:00,80.0,59.0,-100.00,NNW,335,1.0,6.0,49,0.00,,,-99.99,,2013-08-04 18:23:00,
2013-08-04 14:33:00,80.0,58.0,-100.00,NW,310,2.0,11.0,46,0.00,,,-99.99,,2013-08-04 18:33:00,
2013-08-04 14:43:00,79.0,61.0,-100.00,ESE,120,2.0,8.0,53,0.00,,,-99.99,,2013-08-04 18:43:00,
2013-08-04 14:52:00,77.0,60.0,-100.00,East,100,3.0,6.0,55,0.00,,,-99.99,,2013-08-04 18:52:00,
2013-08-04 15:02:00,79.0,62.0,-100.00,NE,50,2.0,6.0,54,0.00,,,-99.99,,2013-08-04 19:02:00,
2013-08-04 15:12:00,81.0,58.0,-100.00,ENE,75,2.0,6.0,45,0.00,,,-99.99,,2013-08-04 19:12:00,
2013-08-04 15:22:00,79.0,58.0,-100.00,West,270,1.0,6.0,47,0.00,,,-99.99,,2013-08-04 19:22:00,
2013-08-04 15:32:00,80.0,59.0,-100.00,ESE,120,1.0,3.0,48,0.00,,,-99.99,,2013-08-04 19:32:00,
2013-08-04 15:53:00,81.0,57.0,-100.00,NW,305,2.0,6.0,44,0.00,,,-99.99,,2013-08-04 19:53:00,
2013-08-04 16:02:00,81.0,59.0,-100.00,WSW,255,4.0,7.0,47,0.00,,,-99.99,,2013-08-04 20:02:00,
2013-08-04 16:12:00,81.0,57.0,-100.00,NW,325,1.0,9.0,44,0.00,,,-99.99,,2013-08-04 20:12:00,
2013-08-04 16:22:00,81.0,57.0,-100.00,ESE,110,1.0,7.0,44,0.00,,,-99.99,,2013-08-04 20:22:00,
2013-08-04 16:33:00,79.0,59.0,-100.00,NE,35,1.0,7.0,51,0.00,,,-99.99,,2013-08-04 20:33:00,
2013-08-04 16:43:00,79.0,60.0,-100.00,SE,125,2.0,4.0,51,0.00,,,-99.99,,2013-08-04 20:43:00,
2013-08-04 16:53:00,82.0,59.0,-100.00,NW,310,1.0,4.0,44,0.00,,,-99.99,,2013-08-04 20:53:00,
2013-08-04 17:02:00,82.0,56.0,-100.00,North,5,2.0,6.0,41,0.00,,,-99.99,,2013-08-04 21:02:00,
2013-08-04 17:12:00,83.0,57.0,-100.00,WNW,285,1.0,6.0,41,0.00,,,-99.99,,2013-08-04 21:12:00,
2013-08-04 17:22:00,80.0,59.0,-100.00,NNW,345,1.0,5.0,49,0.00,,,-99.99,,2013-08-04 21:22:00,
2013-08-04 17:32:00,80.0,59.0,-100.00,East,85,2.0,5.0,48,0.00,,,-99.99,,2013-08-04 21:32:00,
2013-08-04 17:43:00,80.0,58.0,-100.00,East,100,3.0,6.0,47,0.00,,,-99.99,,2013-08-04 21:43:00,
2013-08-04 17:53:00,78.0,57.0,-100.00,NNE,25,2.0,9.0,47,0.00,,,-99.99,,2013-08-04 21:53:00,
2013-08-04 18:02:00,81.0,55.0,-100.00,ENE,70,1.0,8.0,41,0.00,,,-99.99,,2013-08-04 22:02:00,
2013-08-04 18:12:00,80.0,56.0,-100.00,SE,130,2.0,6.0,45,0.00,,,-99.99,,2013-08-04 22:12:00,
2013-08-04 18:22:00,79.0,56.0,-100.00,ESE,115,3.0,6.0,46,0.00,,,-99.99,,2013-08-04 22:22:00,
2013-08-04 18:32:00,80.0,55.0,-100.00,SE,140,1.0,4.0,41,0.00,,,-99.99,,2013-08-04 22:32:00,
2013-08-04 18:43:00,80.0,55.0,-100.00,NE,40,1.0,6.0,42,0.00,,,-99.99,,2013-08-04 22:43:00,
2013-08-04 18:53:00,80.0,53.0,-100.00,WNW,285,2.0,4.0,39,0.00,,,-99.99,,2013-08-04 22:53:00,
2013-08-04 19:02:00,79.0,57.0,-100.00,NE,45,1.0,4.0,46,0.00,,,-99.99,,2013-08-04 23:02:00,
2013-08-04 19:12:00,78.0,56.0,-100.00,ESE,120,1.0,3.0,45,0.00,,,-99.99,,2013-08-04 23:12:00,
2013-08-04 19:23:00,78.0,56.0,-100.00,North,10,0.0,5.0,46,0.00,,,-99.99,,2013-08-04 23:23:00,
2013-08-04 19:32:00,78.0,56.0,-100.00,SE,145,1.0,3.0,47,0.00,,,-99.99,,2013-08-04 23:32:00,
2013-08-04 19:43:00,77.0,55.0,-100.00,NNE,20,0.0,3.0,45,0.00,,,-99.99,,2013-08-04 23:43:00,
2013-08-04 19:53:00,76.0,55.0,-100.00,NNE,15,1.0,2.0,47,0.00,,,-99.99,,2013-08-04 23:53:00,
2013-08-04 20:02:00,74.0,57.0,-100.00,NNE,25,0.0,2.0,55,0.00,,,-99.99,,2013-08-05 00:02:00,
2013-08-04 20:12:00,74.0,56.0,-100.00,South,170,0.0,1.0,53,0.00,,,-99.99,,2013-08-05 00:12:00,
2013-08-04 20:22:00,73.0,56.0,-100.00,ENE,60,0.0,1.0,56,0.00,,,-99.99,,2013-08-05 00:22:00,
2013-08-04 20:33:00,71.0,56.0,-100.00,ESE,110,0.0,0.0,59,0.00,,,-99.99,,2013-08-05 00:33:00,
2013-08-04 20:42:00,70.0,57.0,-100.00,North,5,0.0,0.0,62,0.00,,,-99.99,,2013-08-05 00:42:00,
2013-08-04 20:52:00,69.0,58.0,-100.00,NNE,20,0.0,0.0,66,0.00,,,-99.99,,2013-08-05 00:52:00,
2013-08-04 21:33:00,67.0,58.0,-100.00,North,0,0.0,0.0,73,0.00,,,-99.99,,2013-08-05 01:33:00,
2013-08-04 21:42:00,66.0,56.0,-100.00,NNE,25,0.0,1.0,70,0.00,,,-99.99,,2013-08-05 01:42:00,
2013-08-04 21:52:00,65.0,57.0,-100.00,NE,35,0.0,2.0,74,0.00,,,-99.99,,2013-08-05 01:52:00,
2013-08-04 22:02:00,64.0,57.0,-100.00,NE,40,1.0,2.0,78,0.00,,,-99.99,,2013-08-05 02:02:00,
2013-08-04 22:22:00,63.0,57.0,-100.00,ENE,70,0.0,1.0,80,0.00,,,-99.99,,2013-08-05 02:22:00,
2013-08-04 22:33:00,63.0,57.0,-100.00,NNE,15,0.0,1.0,81,0.00,,,-99.99,,2013-08-05 02:33:00,
2013-08-04 22:43:00,62.0,57.0,-100.00,NE,55,0.0,0.0,81,0.00,,,-99.99,,2013-08-05 02:43:00,
2013-08-04 22:53:00,62.0,57.0,-100.00,ENE,60,0.0,1.0,84,0.00,,,-99.99,,2013-08-05 02:53:00,
2013-08-04 23:02:00,62.0,57.0,-100.00,ENE,60,0.0,1.0,84,0.00,,,-99.99,,2013-08-05 03:02:00,
2013-08-04 23:12:00,61.0,57.0,-100.00,ENE,75,0.0,1.0,86,0.00,,,-99.99,,2013-08-05 03:12:00,
2013-08-04 23:22:00,61.0,57.0,-100.00,East,90,0.0,1.0,87,0.00,,,-99.99,,2013-08-05 03:22:00,
2013-08-04 23:32:00,61.0,57.0,-100.00,East,80,0.0,1.0,87,17.56,,,-99.99,,2013-08-05 03:32:00,
2013-08-04 23:42:00,60.0,57.0,-100.00,East,80,0.0,0.0,88,1.69,,,-99.99,,2013-08-05 03:42:00,
2013-08-04 23:53:00,60.0,57.0,-100.00,ENE,60,0.0,0.0,89,0.00,,,-99.99,,2013-08-05 03:53:00,